Year,Month,Day,Hour,Minute,Value (Times are PST for temperature in C)
2007,06,19,00,01,10.70
2007,06,19,00,02,10.70
2007,06,19,00,03,10.70
2007,06,19,00,04,10.70
2007,06,19,00,05,10.70
2007,06,19,00,06,10.70
2007,06,19,00,07,10.70
2007,06,19,00,08,10.70
2007,06,19,00,09,10.70
2007,06,19,00,10,10.70
2007,06,19,00,11,10.70
2007,06,19,00,12,10.70
2007,06,19,00,13,10.70
2007,06,19,00,14,10.70
2007,06,19,00,15,10.70
2007,06,19,00,16,10.70
2007,06,19,00,17,10.70
2007,06,19,00,18,10.70
2007,06,19,00,19,10.70
2007,06,19,00,20,10.70
2007,06,19,00,21,10.80
2007,06,19,00,22,10.80
2007,06,19,00,23,10.80
2007,06,19,00,24,10.80
2007,06,19,00,25,10.80
2007,06,19,00,26,10.80
2007,06,19,00,27,10.80
2007,06,19,00,28,10.70
2007,06,19,00,29,10.70
2007,06,19,00,30,10.70
2007,06,19,00,31,10.70
2007,06,19,00,32,10.70
2007,06,19,00,33,10.70
2007,06,19,00,34,10.70
2007,06,19,00,35,10.70
2007,06,19,00,36,10.70
2007,06,19,00,37,10.70
2007,06,19,00,38,10.70
2007,06,19,00,40,10.70
2007,06,19,00,41,10.70
2007,06,19,00,42,10.70
2007,06,19,00,43,10.70
2007,06,19,00,44,10.70
2007,06,19,00,45,10.70
2007,06,19,00,46,10.70
2007,06,19,00,47,10.70
2007,06,19,00,48,10.60
2007,06,19,00,49,10.60
2007,06,19,00,50,10.60
2007,06,19,00,51,10.60
2007,06,19,00,52,10.60
2007,06,19,00,53,10.60
2007,06,19,00,54,10.60
2007,06,19,00,55,10.60
2007,06,19,00,56,10.60
2007,06,19,00,57,10.60
2007,06,19,00,58,10.60
2007,06,19,00,59,10.60
2007,06,19,01,00,10.60
2007,06,19,01,01,10.60
2007,06,19,01,02,10.60
2007,06,19,01,03,10.60
2007,06,19,01,04,10.60
2007,06,19,01,05,10.60
2007,06,19,01,06,10.60
2007,06,19,01,07,10.40
2007,06,19,01,08,10.40
2007,06,19,01,09,10.40
2007,06,19,01,10,10.40
2007,06,19,01,11,10.40
2007,06,19,01,12,10.40
2007,06,19,01,13,10.40
2007,06,19,01,14,10.40
2007,06,19,01,15,10.40
2007,06,19,01,16,10.40
2007,06,19,01,17,10.40
2007,06,19,01,18,10.40
2007,06,19,01,19,10.40
2007,06,19,01,20,10.40
2007,06,19,01,21,10.40
2007,06,19,01,22,10.40
2007,06,19,01,23,10.40
2007,06,19,01,24,10.40
2007,06,19,01,25,10.40
2007,06,19,01,26,10.40
2007,06,19,01,27,10.40
2007,06,19,01,28,10.40
2007,06,19,01,29,10.40
2007,06,19,01,30,10.40
2007,06,19,01,31,10.40
2007,06,19,01,32,10.40
2007,06,19,01,33,10.40
2007,06,19,01,34,10.40
2007,06,19,01,35,10.30
2007,06,19,01,36,10.30
2007,06,19,01,37,10.30
2007,06,19,01,38,10.30
2007,06,19,01,39,10.30
2007,06,19,01,40,10.30
2007,06,19,01,41,10.30
2007,06,19,01,42,10.30
2007,06,19,01,43,10.30
2007,06,19,01,44,10.30
2007,06,19,01,45,10.30
2007,06,19,01,46,10.30
2007,06,19,01,47,10.30
2007,06,19,01,48,10.30
2007,06,19,01,49,10.20
2007,06,19,01,50,10.20
2007,06,19,01,51,10.20
2007,06,19,01,52,10.20
2007,06,19,01,53,10.20
2007,06,19,01,54,10.20
2007,06,19,01,55,10.10
2007,06,19,01,56,10.10
2007,06,19,01,57,10.10
2007,06,19,01,58,10.10
2007,06,19,01,59,10.10
2007,06,19,02,00,10.10
2007,06,19,02,01,10.10
2007,06,19,02,02,10.10
2007,06,19,02,03,10.10
2007,06,19,02,04,10.10
2007,06,19,02,05,10.10
2007,06,19,02,06,10.10
2007,06,19,02,07,10.10
2007,06,19,02,08,10.10
2007,06,19,02,09,10.10
2007,06,19,02,10,10.10
2007,06,19,02,11,10.10
2007,06,19,02,12,10.10
2007,06,19,02,13,9.90
2007,06,19,02,14,9.90
2007,06,19,02,15,9.90
2007,06,19,02,16,9.90
2007,06,19,02,17,9.90
2007,06,19,02,18,9.90
2007,06,19,02,19,9.90
2007,06,19,02,20,9.90
2007,06,19,02,21,9.90
2007,06,19,02,22,9.90
2007,06,19,02,23,9.90
2007,06,19,02,24,9.90
2007,06,19,02,25,9.90
2007,06,19,02,26,9.90
2007,06,19,02,27,9.90
2007,06,19,02,28,9.90
2007,06,19,02,29,9.90
2007,06,19,02,30,9.90
2007,06,19,02,31,9.90
2007,06,19,02,32,9.90
2007,06,19,02,33,9.90
2007,06,19,02,34,9.80
2007,06,19,02,35,9.80
2007,06,19,02,36,9.80
2007,06,19,02,37,9.80
2007,06,19,02,38,9.80
2007,06,19,02,39,9.80
2007,06,19,02,40,9.80
2007,06,19,02,41,9.80
2007,06,19,02,42,9.80
2007,06,19,02,43,9.80
2007,06,19,02,44,9.80
2007,06,19,02,45,9.80
2007,06,19,02,47,9.80
2007,06,19,02,48,9.80
2007,06,19,02,49,9.80
2007,06,19,02,50,9.80
2007,06,19,02,51,9.80
2007,06,19,02,52,9.70
2007,06,19,02,53,9.70
2007,06,19,02,54,9.70
2007,06,19,02,55,9.70
2007,06,19,02,56,9.70
2007,06,19,02,57,9.70
2007,06,19,02,58,9.70
2007,06,19,02,59,9.70
2007,06,19,03,00,9.70
2007,06,19,03,01,9.70
2007,06,19,03,02,9.70
2007,06,19,03,03,9.70
2007,06,19,03,04,9.70
2007,06,19,03,05,9.70
2007,06,19,03,08,9.60
2007,06,19,03,09,9.60
2007,06,19,03,10,9.50
2007,06,19,03,11,9.50
2007,06,19,03,12,9.50
2007,06,19,03,13,9.50
2007,06,19,03,14,9.50
2007,06,19,03,15,9.40
2007,06,19,03,16,9.40
2007,06,19,03,17,9.40
2007,06,19,03,18,9.40
2007,06,19,03,19,9.40
2007,06,19,03,20,9.40
2007,06,19,03,21,9.30
2007,06,19,03,22,9.30
2007,06,19,03,23,9.30
2007,06,19,03,24,9.30
2007,06,19,03,25,9.30
2007,06,19,03,26,9.30
2007,06,19,03,27,9.30
2007,06,19,03,28,9.30
2007,06,19,03,29,9.30
2007,06,19,03,30,9.30
2007,06,19,03,31,9.30
2007,06,19,03,32,9.30
2007,06,19,03,33,9.30
2007,06,19,03,34,9.30
2007,06,19,03,35,9.30
2007,06,19,03,36,9.30
2007,06,19,03,37,9.30
2007,06,19,03,38,9.30
2007,06,19,03,39,9.30
2007,06,19,03,40,9.30
2007,06,19,03,41,9.30
2007,06,19,03,42,9.30
2007,06,19,03,43,9.30
2007,06,19,03,44,9.30
2007,06,19,03,45,9.30
2007,06,19,03,46,9.30
2007,06,19,03,47,9.30
2007,06,19,03,48,9.30
2007,06,19,03,49,9.30
2007,06,19,03,50,9.30
2007,06,19,03,51,9.30
2007,06,19,03,52,9.30
2007,06,19,03,53,9.30
2007,06,19,03,54,9.30
2007,06,19,03,55,9.30
2007,06,19,03,56,9.30
2007,06,19,03,57,9.30
2007,06,19,03,58,9.30
2007,06,19,03,59,9.20
2007,06,19,04,00,9.20
2007,06,19,04,01,9.20
2007,06,19,04,02,9.20
2007,06,19,04,03,9.20
2007,06,19,04,04,9.20
2007,06,19,04,05,9.20
2007,06,19,04,06,9.20
2007,06,19,04,07,9.20
2007,06,19,04,08,9.20
2007,06,19,04,09,9.20
2007,06,19,04,10,9.20
2007,06,19,04,11,9.20
2007,06,19,04,12,9.20
2007,06,19,04,13,9.20
2007,06,19,04,14,9.20
2007,06,19,04,15,9.10
2007,06,19,04,16,9.10
2007,06,19,04,17,9.10
2007,06,19,04,18,9.10
2007,06,19,04,19,9.10
2007,06,19,04,20,9.10
2007,06,19,04,21,9.10
2007,06,19,04,22,9.10
2007,06,19,04,23,9.10
2007,06,19,04,24,9.10
2007,06,19,04,25,9.10
2007,06,19,04,26,9.10
2007,06,19,04,27,9.10
2007,06,19,04,28,9.10
2007,06,19,04,29,9.20
2007,06,19,04,30,9.20
2007,06,19,04,31,9.20
2007,06,19,04,32,9.20
2007,06,19,04,33,9.20
2007,06,19,04,34,9.20
2007,06,19,04,35,9.20
2007,06,19,04,36,9.20
2007,06,19,04,37,9.20
2007,06,19,04,38,9.20
2007,06,19,04,39,9.20
2007,06,19,04,40,9.20
2007,06,19,04,41,9.20
2007,06,19,04,42,9.20
2007,06,19,04,43,9.20
2007,06,19,04,44,9.20
2007,06,19,04,45,9.20
2007,06,19,04,46,9.20
2007,06,19,04,47,9.20
2007,06,19,04,48,9.20
2007,06,19,04,49,9.20
2007,06,19,04,50,9.10
2007,06,19,04,51,9.10
2007,06,19,04,52,9.10
2007,06,19,04,53,9.10
2007,06,19,04,54,9.00
2007,06,19,04,55,9.00
2007,06,19,04,56,9.00
2007,06,19,04,57,9.00
2007,06,19,04,58,9.00
2007,06,19,04,59,8.90
2007,06,19,05,00,8.90
2007,06,19,05,01,8.90
2007,06,19,05,02,8.90
2007,06,19,05,03,8.80
2007,06,19,05,04,8.80
2007,06,19,05,05,8.80
2007,06,19,05,06,8.80
2007,06,19,05,07,8.80
2007,06,19,05,08,8.70
2007,06,19,05,09,8.70
2007,06,19,05,10,8.70
2007,06,19,05,11,8.70
2007,06,19,05,12,8.70
2007,06,19,05,13,8.70
2007,06,19,05,14,8.70
2007,06,19,05,15,8.70
2007,06,19,05,16,8.70
2007,06,19,05,17,8.70
2007,06,19,05,18,8.60
2007,06,19,05,19,8.60
2007,06,19,05,20,8.60
2007,06,19,05,21,8.60
2007,06,19,05,22,8.60
2007,06,19,05,23,8.50
2007,06,19,05,24,8.50
2007,06,19,05,25,8.50
2007,06,19,05,26,8.50
2007,06,19,05,27,8.50
2007,06,19,05,28,8.40
2007,06,19,05,29,8.40
2007,06,19,05,30,8.40
2007,06,19,05,31,8.40
2007,06,19,05,32,8.40
2007,06,19,05,33,8.40
2007,06,19,05,34,8.30
2007,06,19,05,35,8.30
2007,06,19,05,36,8.30
2007,06,19,05,37,8.30
2007,06,19,05,38,8.30
2007,06,19,05,39,8.30
2007,06,19,05,40,8.30
2007,06,19,05,41,8.20
2007,06,19,05,42,8.20
2007,06,19,05,43,8.20
2007,06,19,05,44,8.20
2007,06,19,05,45,8.20
2007,06,19,05,46,8.20
2007,06,19,05,47,8.20
2007,06,19,05,48,8.20
2007,06,19,05,49,8.20
2007,06,19,05,50,8.20
2007,06,19,05,51,8.20
2007,06,19,05,52,8.20
2007,06,19,05,53,8.20
2007,06,19,05,54,8.20
2007,06,19,05,55,8.20
2007,06,19,05,56,8.20
2007,06,19,05,57,8.20
2007,06,19,05,58,8.30
2007,06,19,05,59,8.30
2007,06,19,06,00,8.30
2007,06,19,06,01,8.30
2007,06,19,06,02,8.30
2007,06,19,06,03,8.40
2007,06,19,06,04,8.40
2007,06,19,06,05,8.40
2007,06,19,06,06,8.40
2007,06,19,06,07,8.40
2007,06,19,06,08,8.50
2007,06,19,06,09,8.50
2007,06,19,06,10,8.50
2007,06,19,06,11,8.50
2007,06,19,06,12,8.60
2007,06,19,06,13,8.60
2007,06,19,06,14,8.60
2007,06,19,06,16,8.70
2007,06,19,06,17,8.70
2007,06,19,06,18,8.70
2007,06,19,06,19,8.70
2007,06,19,06,20,8.70
2007,06,19,06,21,8.70
2007,06,19,06,22,8.70
2007,06,19,06,23,8.80
2007,06,19,06,24,8.80
2007,06,19,06,25,8.90
2007,06,19,06,26,8.90
2007,06,19,06,27,8.90
2007,06,19,06,28,9.00
2007,06,19,06,29,9.00
2007,06,19,06,30,9.00
2007,06,19,06,31,9.10
2007,06,19,06,32,9.10
2007,06,19,06,33,9.10
2007,06,19,06,34,9.20
2007,06,19,06,35,9.20
2007,06,19,06,36,9.20
2007,06,19,06,37,9.20
2007,06,19,06,38,9.20
2007,06,19,06,39,9.30
2007,06,19,06,40,9.30
2007,06,19,06,41,9.40
2007,06,19,06,42,9.40
2007,06,19,06,43,9.40
2007,06,19,06,44,9.50
2007,06,19,06,45,9.50
2007,06,19,06,46,9.50
2007,06,19,06,47,9.50
2007,06,19,06,48,9.60
2007,06,19,06,49,9.60
2007,06,19,06,50,9.60
2007,06,19,06,51,9.60
2007,06,19,06,52,9.60
2007,06,19,06,53,9.60
2007,06,19,06,54,9.70
2007,06,19,06,55,9.70
2007,06,19,06,56,9.70
2007,06,19,06,57,9.70
2007,06,19,06,58,9.70
2007,06,19,06,59,9.70
2007,06,19,07,00,9.70
2007,06,19,07,01,9.70
2007,06,19,07,02,9.70
2007,06,19,07,03,9.80
2007,06,19,07,04,9.80
2007,06,19,07,05,9.80
2007,06,19,07,06,9.90
2007,06,19,07,07,9.90
2007,06,19,07,08,9.90
2007,06,19,07,09,9.90
2007,06,19,07,10,9.90
2007,06,19,07,11,10.10
2007,06,19,07,12,10.10
2007,06,19,07,13,10.10
2007,06,19,07,14,10.10
2007,06,19,07,15,10.10
2007,06,19,07,16,10.10
2007,06,19,07,17,10.20
2007,06,19,07,18,10.20
2007,06,19,07,19,10.20
2007,06,19,07,20,10.30
2007,06,19,07,21,10.30
2007,06,19,07,22,10.30
2007,06,19,07,23,10.40
2007,06,19,07,24,10.40
2007,06,19,07,25,10.40
2007,06,19,07,26,10.40
2007,06,19,07,27,10.40
2007,06,19,07,28,10.40
2007,06,19,07,29,10.40
2007,06,19,07,30,10.40
2007,06,19,07,31,10.40
2007,06,19,07,32,10.60
2007,06,19,07,33,10.60
2007,06,19,07,34,10.60
2007,06,19,07,35,10.60
2007,06,19,07,36,10.60
2007,06,19,07,37,10.60
2007,06,19,07,38,10.60
2007,06,19,07,39,10.60
2007,06,19,07,40,10.60
2007,06,19,07,41,10.60
2007,06,19,07,42,10.60
2007,06,19,07,43,10.60
2007,06,19,07,44,10.60
2007,06,19,07,45,10.60
2007,06,19,07,46,10.70
2007,06,19,07,47,10.70
2007,06,19,07,48,10.70
2007,06,19,07,49,10.70
2007,06,19,07,50,10.70
2007,06,19,07,51,10.80
2007,06,19,07,52,10.80
2007,06,19,07,53,10.90
2007,06,19,07,54,10.90
2007,06,19,07,55,10.90
2007,06,19,07,56,10.90
2007,06,19,07,57,10.90
2007,06,19,07,58,10.90
2007,06,19,07,59,10.90
2007,06,19,08,00,10.90
2007,06,19,08,01,10.90
2007,06,19,08,02,10.90
2007,06,19,08,03,10.90
2007,06,19,08,04,10.90
2007,06,19,08,05,11.10
2007,06,19,08,06,11.10
2007,06,19,08,07,11.10
2007,06,19,08,08,11.10
2007,06,19,08,09,11.20
2007,06,19,08,10,11.20
2007,06,19,08,11,11.30
2007,06,19,08,12,11.40
2007,06,19,08,13,11.40
2007,06,19,08,14,11.60
2007,06,19,08,15,11.60
2007,06,19,08,16,11.60
2007,06,19,08,17,11.70
2007,06,19,08,18,11.70
2007,06,19,08,19,11.80
2007,06,19,08,20,11.80
2007,06,19,08,21,11.90
2007,06,19,08,22,12.00
2007,06,19,08,23,12.00
2007,06,19,08,24,12.10
2007,06,19,08,25,12.10
2007,06,19,08,26,12.10
2007,06,19,08,27,12.10
2007,06,19,08,28,12.20
2007,06,19,08,29,12.20
2007,06,19,08,30,12.20
2007,06,19,08,31,12.30
2007,06,19,08,32,12.30
2007,06,19,08,33,12.30
2007,06,19,08,34,12.30
2007,06,19,08,35,12.30
2007,06,19,08,36,12.40
2007,06,19,08,37,12.30
2007,06,19,08,38,12.40
2007,06,19,08,39,12.40
2007,06,19,08,40,12.40
2007,06,19,08,41,12.40
2007,06,19,08,42,12.40
2007,06,19,08,43,12.50
2007,06,19,08,44,12.50
2007,06,19,08,45,12.50
2007,06,19,08,46,12.50
2007,06,19,08,47,12.50
2007,06,19,08,48,12.50
2007,06,19,08,49,12.50
2007,06,19,08,50,12.50
2007,06,19,08,51,12.50
2007,06,19,08,53,12.60
2007,06,19,08,54,12.70
2007,06,19,08,55,12.70
2007,06,19,08,56,12.80
2007,06,19,08,57,12.80
2007,06,19,08,58,12.80
2007,06,19,08,59,12.80
2007,06,19,09,00,12.80
2007,06,19,09,01,12.90
2007,06,19,09,02,12.90
2007,06,19,09,03,13.00
2007,06,19,09,04,13.10
2007,06,19,09,05,13.20
2007,06,19,09,06,13.30
2007,06,19,09,07,13.30
2007,06,19,09,08,13.30
2007,06,19,09,09,13.40
2007,06,19,09,10,13.50
2007,06,19,09,11,13.60
2007,06,19,09,12,13.70
2007,06,19,09,13,13.70
2007,06,19,09,14,13.70
2007,06,19,09,15,13.70
2007,06,19,09,16,13.70
2007,06,19,09,17,13.70
2007,06,19,09,18,13.70
2007,06,19,09,19,13.70
2007,06,19,09,20,13.70
2007,06,19,09,21,13.70
2007,06,19,09,22,13.70
2007,06,19,09,23,13.70
2007,06,19,09,24,13.70
2007,06,19,09,25,13.70
2007,06,19,09,26,13.80
2007,06,19,09,27,13.90
2007,06,19,09,28,14.00
2007,06,19,09,29,14.00
2007,06,19,09,30,14.00
2007,06,19,09,31,14.10
2007,06,19,09,32,14.20
2007,06,19,09,33,14.20
2007,06,19,09,34,14.20
2007,06,19,09,35,14.20
2007,06,19,09,36,14.20
2007,06,19,09,37,14.20
2007,06,19,09,38,14.20
2007,06,19,09,39,14.20
2007,06,19,09,40,14.20
2007,06,19,09,41,14.20
2007,06,19,09,42,14.20
2007,06,19,09,43,14.20
2007,06,19,09,44,14.30
2007,06,19,09,45,14.30
2007,06,19,09,46,14.40
2007,06,19,09,47,14.50
2007,06,19,09,48,14.50
2007,06,19,09,49,14.50
2007,06,19,09,50,14.60
2007,06,19,09,51,14.60
2007,06,19,09,52,14.70
2007,06,19,09,53,14.70
2007,06,19,09,54,14.70
2007,06,19,09,55,14.80
2007,06,19,09,56,14.80
2007,06,19,09,57,14.80
2007,06,19,09,58,14.80
2007,06,19,09,59,14.80
2007,06,19,10,00,14.90
2007,06,19,10,01,14.90
2007,06,19,10,02,14.90
2007,06,19,10,03,15.00
2007,06,19,10,04,15.00
2007,06,19,10,05,15.00
2007,06,19,10,06,15.00
2007,06,19,10,07,15.00
2007,06,19,10,08,15.00
2007,06,19,10,09,15.00
2007,06,19,10,10,15.00
2007,06,19,10,11,15.00
2007,06,19,10,12,15.00
2007,06,19,10,13,15.10
2007,06,19,10,14,15.10
2007,06,19,10,15,15.00
2007,06,19,10,16,14.80
2007,06,19,10,17,14.80
2007,06,19,10,18,14.80
2007,06,19,10,19,14.80
2007,06,19,10,20,14.80
2007,06,19,10,21,14.80
2007,06,19,10,22,14.80
2007,06,19,10,23,14.80
2007,06,19,10,24,14.80
2007,06,19,10,25,14.80
2007,06,19,10,26,14.90
2007,06,19,10,27,15.00
2007,06,19,10,28,15.10
2007,06,19,10,29,15.10
2007,06,19,10,30,15.20
2007,06,19,10,31,15.30
2007,06,19,10,32,15.30
2007,06,19,10,33,15.40
2007,06,19,10,34,15.50
2007,06,19,10,35,15.60
2007,06,19,10,36,15.70
2007,06,19,10,37,15.80
2007,06,19,10,38,15.80
2007,06,19,10,39,15.90
2007,06,19,10,40,15.90
2007,06,19,10,41,16.10
2007,06,19,10,42,16.10
2007,06,19,10,43,16.20
2007,06,19,10,44,16.30
2007,06,19,10,45,16.40
2007,06,19,10,46,16.40
2007,06,19,10,47,16.60
2007,06,19,10,48,16.60
2007,06,19,10,49,16.70
2007,06,19,10,50,16.70
2007,06,19,10,51,16.70
2007,06,19,10,52,16.70
2007,06,19,10,53,16.80
2007,06,19,10,54,16.80
2007,06,19,10,55,16.80
2007,06,19,10,56,16.60
2007,06,19,10,57,16.40
2007,06,19,10,58,16.20
2007,06,19,10,59,16.20
2007,06,19,11,00,16.10
2007,06,19,11,01,16.10
2007,06,19,11,02,15.90
2007,06,19,11,03,15.90
2007,06,19,11,04,16.10
2007,06,19,11,05,16.10
2007,06,19,11,06,16.20
2007,06,19,11,07,16.30
2007,06,19,11,08,16.40
2007,06,19,11,09,16.60
2007,06,19,11,10,16.70
2007,06,19,11,11,16.80
2007,06,19,11,12,16.90
2007,06,19,11,13,17.00
2007,06,19,11,14,17.00
2007,06,19,11,15,17.10
2007,06,19,11,16,17.20
2007,06,19,11,17,17.10
2007,06,19,11,18,17.20
2007,06,19,11,19,17.20
2007,06,19,11,20,17.20
2007,06,19,11,21,17.30
2007,06,19,11,22,17.30
2007,06,19,11,23,17.30
2007,06,19,11,24,17.30
2007,06,19,11,25,17.30
2007,06,19,11,26,17.30
2007,06,19,11,27,17.30
2007,06,19,11,28,17.30
2007,06,19,11,29,17.20
2007,06,19,11,30,17.20
2007,06,19,11,31,17.30
2007,06,19,11,32,17.30
2007,06,19,11,33,17.30
2007,06,19,11,34,17.30
2007,06,19,11,35,17.40
2007,06,19,11,36,17.50
2007,06,19,11,37,17.60
2007,06,19,11,38,17.70
2007,06,19,11,39,17.80
2007,06,19,11,40,17.90
2007,06,19,11,41,17.90
2007,06,19,11,42,18.10
2007,06,19,11,43,18.10
2007,06,19,11,44,18.20
2007,06,19,11,45,18.20
2007,06,19,11,46,18.30
2007,06,19,11,47,18.30
2007,06,19,11,48,18.40
2007,06,19,11,49,18.50
2007,06,19,11,50,18.60
2007,06,19,11,51,18.70
2007,06,19,11,52,18.70
2007,06,19,11,53,18.80
2007,06,19,11,54,18.90
2007,06,19,11,55,18.90
2007,06,19,11,56,18.90
2007,06,19,11,57,18.90
2007,06,19,11,58,19.10
2007,06,19,11,59,19.10
2007,06,19,12,00,19.10
2007,06,19,12,01,19.10
2007,06,19,12,02,19.10
2007,06,19,12,03,19.10
2007,06,19,12,04,19.10
2007,06,19,12,05,19.20
2007,06,19,12,06,19.20
2007,06,19,12,07,19.20
2007,06,19,12,08,19.20
2007,06,19,12,09,19.20
2007,06,19,12,10,19.20
2007,06,19,12,11,19.20
2007,06,19,12,12,19.20
2007,06,19,12,13,19.20
2007,06,19,12,14,19.20
2007,06,19,12,15,19.20
2007,06,19,12,16,19.20
2007,06,19,12,17,19.20
2007,06,19,12,18,19.20
2007,06,19,12,19,19.30
2007,06,19,12,20,19.30
2007,06,19,12,21,19.40
2007,06,19,12,22,19.50
2007,06,19,12,23,19.50
2007,06,19,12,24,19.60
2007,06,19,12,25,19.60
2007,06,19,12,26,19.70
2007,06,19,12,27,19.80
2007,06,19,12,28,19.80
2007,06,19,12,29,19.80
2007,06,19,12,30,19.90
2007,06,19,12,31,19.90
2007,06,19,12,32,19.90
2007,06,19,12,33,20.10
2007,06,19,12,34,20.10
2007,06,19,12,35,20.20
2007,06,19,12,36,20.20
2007,06,19,12,37,20.20
2007,06,19,12,38,20.30
2007,06,19,12,39,20.30
2007,06,19,12,40,20.40
2007,06,19,12,41,20.50
2007,06,19,12,42,20.50
2007,06,19,12,43,20.60
2007,06,19,12,44,20.60
2007,06,19,12,45,20.60
2007,06,19,12,46,20.60
2007,06,19,12,47,20.60
2007,06,19,12,48,20.50
2007,06,19,12,49,20.50
2007,06,19,12,50,20.40
2007,06,19,12,51,20.40
2007,06,19,12,52,20.40
2007,06,19,12,53,20.30
2007,06,19,12,54,20.30
2007,06,19,12,55,20.20
2007,06,19,12,56,20.20
2007,06,19,12,57,20.20
2007,06,19,12,58,20.20
2007,06,19,12,59,20.20
2007,06,19,13,00,20.20
2007,06,19,13,01,20.20
2007,06,19,13,02,20.20
2007,06,19,13,03,20.20
2007,06,19,13,04,20.20
2007,06,19,13,05,20.30
2007,06,19,13,06,20.30
2007,06,19,13,07,20.30
2007,06,19,13,08,20.40
2007,06,19,13,09,20.40
2007,06,19,13,10,20.50
2007,06,19,13,11,20.50
2007,06,19,13,12,20.60
2007,06,19,13,13,20.60
2007,06,19,13,14,20.70
2007,06,19,13,15,20.70
2007,06,19,13,16,20.80
2007,06,19,13,17,20.90
2007,06,19,13,18,21.00
2007,06,19,13,19,21.10
2007,06,19,13,20,21.10
2007,06,19,13,21,21.20
2007,06,19,13,22,21.20
2007,06,19,13,23,21.30
2007,06,19,13,24,21.30
2007,06,19,13,25,21.30
2007,06,19,13,26,21.30
2007,06,19,13,27,21.40
2007,06,19,13,28,21.60
2007,06,19,13,29,21.60
2007,06,19,13,30,21.60
2007,06,19,13,31,21.60
2007,06,19,13,32,21.60
2007,06,19,13,33,21.40
2007,06,19,13,34,21.40
2007,06,19,13,35,21.40
2007,06,19,13,36,21.40
2007,06,19,13,37,21.60
2007,06,19,13,38,21.60
2007,06,19,13,39,21.60
2007,06,19,13,40,21.60
2007,06,19,13,41,21.60
2007,06,19,13,42,21.60
2007,06,19,13,43,21.60
2007,06,19,13,44,21.60
2007,06,19,13,45,21.60
2007,06,19,13,46,21.70
2007,06,19,13,47,21.70
2007,06,19,13,48,21.80
2007,06,19,13,49,21.80
2007,06,19,13,50,21.80
2007,06,19,13,51,21.80
2007,06,19,13,52,21.80
2007,06,19,13,53,21.80
2007,06,19,13,54,21.90
2007,06,19,13,55,21.90
2007,06,19,13,56,21.90
2007,06,19,13,57,22.00
2007,06,19,13,58,22.00
2007,06,19,13,59,22.10
2007,06,19,14,00,22.10
2007,06,19,14,01,22.20
2007,06,19,14,02,22.30
2007,06,19,14,03,22.30
2007,06,19,14,04,22.40
2007,06,19,14,05,22.50
2007,06,19,14,06,22.60
2007,06,19,14,07,22.60
2007,06,19,14,08,22.40
2007,06,19,14,09,22.10
2007,06,19,14,10,21.90
2007,06,19,14,11,21.90
2007,06,19,14,12,21.80
2007,06,19,14,13,21.90
2007,06,19,14,14,21.90
2007,06,19,14,15,22.00
2007,06,19,14,16,21.90
2007,06,19,14,17,21.80
2007,06,19,14,18,21.70
2007,06,19,14,19,21.70
2007,06,19,14,20,21.70
2007,06,19,14,21,21.70
2007,06,19,14,22,21.60
2007,06,19,14,23,21.30
2007,06,19,14,24,21.20
2007,06,19,14,25,20.90
2007,06,19,14,26,20.50
2007,06,19,14,27,20.30
2007,06,19,14,28,20.20
2007,06,19,14,29,20.10
2007,06,19,14,30,19.80
2007,06,19,14,31,19.60
2007,06,19,14,32,19.50
2007,06,19,14,33,19.40
2007,06,19,14,34,19.40
2007,06,19,14,35,19.40
2007,06,19,14,36,19.40
2007,06,19,14,37,19.40
2007,06,19,14,38,19.50
2007,06,19,14,39,19.60
2007,06,19,14,40,19.70
2007,06,19,14,41,19.90
2007,06,19,14,42,19.90
2007,06,19,14,43,20.20
2007,06,19,14,44,20.30
2007,06,19,14,45,20.40
2007,06,19,14,46,20.60
2007,06,19,14,47,20.70
2007,06,19,14,48,20.80
2007,06,19,14,49,20.80
2007,06,19,14,50,20.90
2007,06,19,14,51,20.90
2007,06,19,14,52,20.90
2007,06,19,14,53,20.80
2007,06,19,14,54,20.70
2007,06,19,14,55,20.50
2007,06,19,14,56,20.30
2007,06,19,14,57,20.20
2007,06,19,14,58,20.20
2007,06,19,14,59,20.10
2007,06,19,15,00,20.10
2007,06,19,15,01,20.10
2007,06,19,15,02,20.20
2007,06,19,15,03,20.20
2007,06,19,15,04,20.30
2007,06,19,15,05,20.40
2007,06,19,15,06,20.50
2007,06,19,15,07,20.70
2007,06,19,15,08,20.70
2007,06,19,15,09,20.80
2007,06,19,15,10,20.80
2007,06,19,15,11,20.60
2007,06,19,15,12,20.50
2007,06,19,15,13,20.50
2007,06,19,15,14,20.60
2007,06,19,15,15,20.70
2007,06,19,15,16,20.80
2007,06,19,15,17,20.90
2007,06,19,15,18,21.00
2007,06,19,15,19,21.20
2007,06,19,15,20,21.30
2007,06,19,15,21,21.30
2007,06,19,15,22,21.40
2007,06,19,15,23,21.60
2007,06,19,15,24,21.60
2007,06,19,15,25,21.80
2007,06,19,15,26,21.80
2007,06,19,15,27,21.90
2007,06,19,15,28,22.10
2007,06,19,15,29,22.20
2007,06,19,15,30,22.30
2007,06,19,15,31,22.40
2007,06,19,15,32,22.50
2007,06,19,15,33,22.50
2007,06,19,15,34,22.40
2007,06,19,15,35,22.10
2007,06,19,15,36,22.00
2007,06,19,15,37,21.90
2007,06,19,15,38,21.90
2007,06,19,15,39,21.90
2007,06,19,15,40,21.90
2007,06,19,15,41,22.00
2007,06,19,15,42,22.10
2007,06,19,15,43,22.20
2007,06,19,15,44,22.30
2007,06,19,15,45,22.40
2007,06,19,15,46,22.40
2007,06,19,15,47,22.50
2007,06,19,15,48,22.60
2007,06,19,15,49,22.70
2007,06,19,15,50,22.80
2007,06,19,15,51,22.80
2007,06,19,15,52,22.90
2007,06,19,15,53,22.90
2007,06,19,15,54,22.90
2007,06,19,15,55,22.90
2007,06,19,15,56,22.90
2007,06,19,15,57,22.90
2007,06,19,15,58,22.90
2007,06,19,15,59,22.90
2007,06,19,16,00,22.90
2007,06,19,16,01,22.90
2007,06,19,16,02,22.80
2007,06,19,16,03,22.60
2007,06,19,16,04,22.40
2007,06,19,16,05,22.10
2007,06,19,16,06,21.80
2007,06,19,16,07,21.70
2007,06,19,16,08,21.80
2007,06,19,16,09,21.90
2007,06,19,16,10,22.10
2007,06,19,16,11,22.40
2007,06,19,16,12,22.70
2007,06,19,16,13,22.90
2007,06,19,16,14,23.20
2007,06,19,16,15,23.40
2007,06,19,16,16,23.70
2007,06,19,16,17,23.70
2007,06,19,16,18,23.90
2007,06,19,16,19,24.10
2007,06,19,16,20,24.20
2007,06,19,16,21,24.40
2007,06,19,16,22,24.50
2007,06,19,16,23,24.60
2007,06,19,16,24,24.60
2007,06,19,16,25,24.70
2007,06,19,16,26,24.80
2007,06,19,16,27,24.80
2007,06,19,16,28,24.90
2007,06,19,16,29,25.00
2007,06,19,16,30,25.00
2007,06,19,16,31,24.90
2007,06,19,16,32,24.90
2007,06,19,16,33,24.90
2007,06,19,16,34,24.90
2007,06,19,16,35,24.90
2007,06,19,16,36,24.90
2007,06,19,16,37,25.00
2007,06,19,16,38,25.00
2007,06,19,16,39,25.10
2007,06,19,16,40,25.20
2007,06,19,16,41,25.20
2007,06,19,16,42,25.30
2007,06,19,16,43,25.30
2007,06,19,16,44,25.40
2007,06,19,16,45,25.50
2007,06,19,16,46,25.60
2007,06,19,16,47,25.60
2007,06,19,16,48,25.70
2007,06,19,16,49,25.70
2007,06,19,16,50,25.70
2007,06,19,16,51,25.70
2007,06,19,16,52,25.70
2007,06,19,16,53,25.60
2007,06,19,16,54,25.60
2007,06,19,16,55,25.60
2007,06,19,16,56,25.60
2007,06,19,16,57,25.50
2007,06,19,16,58,25.50
2007,06,19,16,59,25.60
2007,06,19,17,00,25.60
2007,06,19,17,01,25.60
2007,06,19,17,02,25.60
2007,06,19,17,03,25.60
2007,06,19,17,04,25.50
2007,06,19,17,05,25.40
2007,06,19,17,06,25.30
2007,06,19,17,07,25.20
2007,06,19,17,08,25.10
2007,06,19,17,09,25.00
2007,06,19,17,10,24.80
2007,06,19,17,11,24.70
2007,06,19,17,12,24.60
2007,06,19,17,13,24.40
2007,06,19,17,14,24.30
2007,06,19,17,15,24.30
2007,06,19,17,16,24.20
2007,06,19,17,17,24.20
2007,06,19,17,18,24.10
2007,06,19,17,19,24.10
2007,06,19,17,20,24.10
2007,06,19,17,21,24.10
2007,06,19,17,22,24.10
2007,06,19,17,23,24.10
2007,06,19,17,24,24.20
2007,06,19,17,25,24.20
2007,06,19,17,26,24.20
2007,06,19,17,27,24.20
2007,06,19,17,28,24.10
2007,06,19,17,29,24.10
2007,06,19,17,30,24.20
2007,06,19,17,31,24.20
2007,06,19,17,32,24.30
2007,06,19,17,33,24.30
2007,06,19,17,34,24.30
2007,06,19,17,35,24.30
2007,06,19,17,36,24.30
2007,06,19,17,37,24.20
2007,06,19,17,38,24.20
2007,06,19,17,39,24.10